Preview of NWS' New Version of Forecast
This preview is not operational and should not be used for support decisions.

Regional Weather Roundup (RWR)

Issued by National Weather Service (NWS)

                            
000
ASUS45 KBOU 180710
RWRCO 

WEATHER ROUNDUP FOR COLORADO
NATIONAL WEATHER SERVICE DENVER/BOULDER CO
1200 AM MST MON FEB 18 2019

NOTE: "FAIR" INDICATES FEW OR NO CLOUDS BELOW 12000 FEET WITH NO
SIGNIFICANT WEATHER AND/OR OBSTRUCTIONS TO VISIBILITY.

COZ001>005-013-030-031-180800-
...NORTHWEST COLORADO...
  
CITY           SKY/WX    TMP DP  RH WIND       PRES   REMARKS
CRAIG          FAIR       6   1  80 CALM      29.84S                  
HAYDEN         FAIR      11   2  67 SE12      29.83F WCI  -3          
MEEKER         CLOUDY    16   6  65 E7        29.80S WCI   6          
RANGELY        CLOUDY    23  10  58 NE13      29.84F WCI  11          
RABBIT EARS PA CLOUDY     5   3  92 S7        29.71S WCI  -7          
STEAMBOAT SPGS FAIR       7   0  74 NW3       29.82F                  
WALDEN         FAIR      -6 -11  77 SE5       29.84R WCI -17          
$$

COZ006>008-011-180800-
...WEST CENTRAL VALLEYS...
  
CITY           SKY/WX    TMP DP  RH WIND       PRES   REMARKS
GRAND JUNCTION FLURRIES  30  26  85 W8        29.82R WCI  22          
MONTROSE       FAIR      25  15  66 E10       29.84S WCI  15          
EAGLE          MOCLDY    15   8  73 S5        29.85S WCI   8          
RIFLE          CLOUDY    24  13  62 CALM      29.82S                  
DELTA          CLOUDY    32  14  46 S7        29.84R WCI  26          
NUCLA          FAIR      27  18  69 SW12      29.88R WCI  16          
$$

COZ017>023-064>068-180800-
...SOUTHWEST COLORADO...
  
CITY           SKY/WX    TMP DP  RH WIND       PRES   REMARKS
DURANGO        CLOUDY    22  22 100 CALM      29.86R                  
CORTEZ         MOCLDY    12   8  84 NE8       29.87R WCI   0          
PAGOSA SPRINGS LGT SNOW  21  21  98 S6        29.84R WCI  14          
TELLURIDE      MOCLDY    14  10  85 E3        29.77S                  
WOLF CREEK PAS CLOUDY     3   1  92 S17G31    29.74S WCI -17          
$$

COZ009-010-012-014-032>034-037-058>063-180800-
...CENTRAL COLORADO...
  
CITY           SKY/WX    TMP DP  RH WIND       PRES   REMARKS
ASPEN          FAIR      18   5  57 SE7       29.75F WCI   9          
BUENA VISTA    LGT SNOW  18  14  86 E3        29.84S                  
COPPER MTN     CLOUDY     7  -4  61 SE15      29.67F WCI -11          
BERTHOUD PASS  CLOUDY    -4 -15  59 SE21      29.67S WCI -28          
COTTONWOOD PAS LGT SNOW  12  10  92 SE12G17   29.77S WCI  -2          
GUNNISON       CLOUDY     3  -2  79 SW3       29.83S                  
GRANBY         PTSUNNY    5  -2  74 CALM      29.82F                  
KREMMLING      MOCLDY     5   3  92 CALM      29.86S                  
LEADVILLE      LGT SNOW   6   4  91 CALM      29.75S FOG              
MONARCH PASS   CLOUDY     3  -2  78 MISG      29.80S                  
SALIDA         CLOUDY    20  17  88 SE5       29.93S WCI  14          
SUNLIGHT       CLOUDY     5   1  85 MISG      29.74F                  
WILKERSON PASS CLOUDY     3   0  85 S10G18    29.76F WCI -12          
$$

COZ069>075-180800-
...SAN LUIS VALLEY/SANGRE DE CRISTO MOUNTAINS...
  
CITY           SKY/WX    TMP DP  RH WIND       PRES   REMARKS
ALAMOSA        FAIR      15  14  95 S7        29.83S WCI   5          
DEL NORTE      FLURRIES  12   7  79 W6        29.83R WCI   3          
LA VETA PASS   NOT AVBL                                               
SAGUACHE       LGT SNOW  18  12  79 CALM      29.84S                  
$$

COZ035-036-038>040-180800-
...NORTHERN COLORADO FRONT RANGE...
  
CITY           SKY/WX    TMP DP  RH WIND       PRES   REMARKS
DENVER INTL AP CLOUDY    11   4  73 E13       30.07R WCI  -4          
AURORA         MOCLDY    11   6  80 E10       30.05R WCI  -2          
FRONT RANGE AP NOT AVBL                                               
ERIE MUNI ARPT CLOUDY    16   4  59 E9        30.14R WCI   5          
BOULDER MUN AP CLOUDY    18   9  68 E5        30.07R WCI  11          
CENTENNIAL     FLURRIES  13   7  77 E9        30.02R WCI   1          
BROOMFIELD     CLOUDY    16   7  67 E10       30.05R WCI   3          
FORT COLLINS   CLOUDY    13   3  64 E12       30.11R WCI  -1          
LONGMONT       CLOUDY    18   6  59 E10       30.11R WCI   6          
$$

COZ041-046-047-076>085-087-088-180800-
...PIKES PEAK/PALMER DIVIDE AND SOUTHERN FOOTHILLS...
  
CITY           SKY/WX    TMP DP  RH WIND       PRES   REMARKS
COLO. SPRINGS  LGT SNOW  17  11  77 E9        30.00R WCI   6          
A. F. ACADEMY  LGT SNOW  15  11  82 CALM      29.97R                  
SCHRIEVER AFB  NOT AVBL                                               
CHEYENNE MTN   SNOW      12  10  92 SE12      29.91R VSB 3/8 WCI  -2  
ELLICOTT       NOT AVBL                                               
FALCON         LGT SNOW  12   7  82 NE7       29.98R WCI   1          
FORT CARSON    FLURRIES  16   8  70 S10       30.02R WCI   4          
LIMON          FLURRIES   9   4  80 NE12      30.07S WCI  -6          
MONUMENT HILL  LGT SNOW   9   5  85 E6        29.97S WCI  -1          
CANON CITY     NOT AVBL                                               
WALSENBURG     NOT AVBL                                               
TRINIDAD       CLOUDY    24  20  84 E15G22    29.93S WCI  11          
$$

COZ042>045-048>051-090-091-180800-
...NORTHEAST COLORADO...
  
CITY           SKY/WX    TMP DP  RH WIND       PRES   REMARKS
GREELEY ARPT   MOCLDY    11   2  67 E10       30.15R WCI  -3          
AKRON          FAIR       3  -1  83 NE10      30.14R WCI -12          
BURLINGTON     CLOUDY     9   0  67 N17       30.16R WCI  -9          
WRAY           FAIR       3  -2  78 NW5       30.25R WCI  -6          
YUMA           FAIR       3   0  85 N6        30.19S WCI  -8          
STERLING       MOCLDY     7  -2  66 N6        30.19R WCI  -3          
HOLYOKE        FAIR       5   0  78 N15       30.21R WCI -13          
FORT MORGAN      N/A      5  -3  71 E8        30.17R WCI  -8          
$$

COZ086-089-092>099-180800-
...SOUTHEAST COLORADO...
  
CITY           SKY/WX    TMP DP  RH WIND       PRES   REMARKS
PUEBLO         LGT SNOW  18  13  80 E17       30.10R WCI   3          
LA JUNTA       LGT SNOW  16  10  77 E15       30.14R VSB 3/4 WCI   1  
LAMAR          LGT SNOW  15   8  73 E14       30.18R WCI   0          
SPRINGFIELD      N/A     14  12  92 E16       30.10R WCI  -2          
$$